Weather History for Boston, MA

Change the Weather History Date:

Thursday, June 6, 2013

  Actual Average Record
Temperature  
Mean Temperature 63 °F 65 °F  
Max Temperature 69 °F 73 °F 100 °F (1925)
Min Temperature 57 °F 57 °F 45 °F (1945)
Degree Days  
Heating Degree Days 2 3  
Month to date heating degree days 3 21  
Since 1 June heating degree days 3 21  
Since 1 July heating degree days 5340 5647  
Cooling Degree Days 0 3  
Month to date cooling degree days 34 14  
Year to date cooling degree days 72 44  
Since 1 June cooling degree days 34 14  
Growing Degree Days 13 (Base 50)    
Moisture  
Dew Point 50 °F    
Average Humidity 60    
Maximum Humidity 80    
Minimum Humidity 39    
Precipitation  
Precipitation 0.02 in 0.14 in 4.00 in (2000)
Month to date precipitation 0.73 0.86  
Year to date precipitation 14.98 19.02  
Sea Level Pressure  
Sea Level Pressure 30.16 in    
Wind  
Wind Speed 9 mph (SSE)    
Max Wind Speed 20 mph    
Max Gust Speed 22 mph    
Visibility 10 miles    
Events Rain    
T = Trace of Precipitation, MM = Missing Value Source: NWS Daily Summary

Daily Weather History Graph

Daily Weather History Graph

Search for Another Location

Airport:

Trip Planner

Search our weather history database for the weather conditions in past years. The results will help you decide how hot, cold, wet, or windy it might be!

Date:

Astronomy

Jun. 06, 2013 Rise Set
Actual Time 5:07 AM EDT 8:18 PM EDT
Civil Twilight 4:33 AM EDT 8:52 PM EDT
Nautical Twilight 3:49 AM EDT 9:36 PM EDT
Astronomical Twilight 2:56 AM EDT 10:29 PM EDT
Moon 3:49 AM EDT (6/6) 6:35 PM EDT (6/6)
Length of Visible Light 16h 18m
Length of Day
15h 10m
Waning Crescent, 4% of the Moon is Illuminated
Jun 6
Waning Crescent
Jun 8
New
Jun 16
First Quarter
Jun 23
Full
Jun 30
Last Quarter

Hourly Weather History & Observations

Time (EDT) Temp. Dew Point Humidity Pressure Visibility Wind Dir Wind Speed Gust Speed Precip Events Conditions
12:54 AM 61.0 °F 46.9 °F 60% 30.16 in 10.0 mi SSW 6.9 mph - N/A   Mostly Cloudy
1:54 AM 60.1 °F 48.9 °F 67% 30.16 in 10.0 mi SW 6.9 mph - N/A   Mostly Cloudy
2:54 AM 59.0 °F 48.0 °F 67% 30.17 in 10.0 mi SW 8.1 mph - N/A   Partly Cloudy
3:54 AM 59.0 °F 48.0 °F 67% 30.17 in 10.0 mi SW 5.8 mph - N/A   Mostly Cloudy
4:54 AM 57.0 °F 48.0 °F 72% 30.17 in 10.0 mi SSW 5.8 mph - N/A   Mostly Cloudy
5:54 AM 57.0 °F 48.0 °F 72% 30.17 in 10.0 mi SW 4.6 mph - N/A   Mostly Cloudy
6:54 AM 61.0 °F 48.9 °F 64% 30.19 in 10.0 mi SW 5.8 mph - N/A   Scattered Clouds
7:54 AM 63.0 °F 50.0 °F 63% 30.19 in 10.0 mi SSW 4.6 mph - N/A   Scattered Clouds
8:54 AM 64.9 °F 50.0 °F 58% 30.19 in 10.0 mi South 5.8 mph - N/A   Mostly Cloudy
9:54 AM 66.0 °F 51.1 °F 59% 30.18 in 10.0 mi SSE 8.1 mph - N/A   Mostly Cloudy
10:54 AM 68.0 °F 50.0 °F 52% 30.18 in 10.0 mi ESE 8.1 mph - N/A   Mostly Cloudy
11:54 AM 68.0 °F 54.0 °F 61% 30.18 in 10.0 mi ESE 11.5 mph - N/A   Mostly Cloudy
12:54 PM 68.0 °F 51.1 °F 55% 30.16 in 10.0 mi ESE 15.0 mph - N/A   Mostly Cloudy
1:54 PM 66.9 °F 53.1 °F 61% 30.15 in 10.0 mi East 16.1 mph - N/A   Mostly Cloudy
2:54 PM 66.0 °F 54.0 °F 65% 30.13 in 10.0 mi ESE 15.0 mph - N/A   Overcast
3:54 PM 66.9 °F 53.1 °F 61% 30.12 in 10.0 mi ESE 13.8 mph - N/A   Overcast
4:54 PM 66.0 °F 52.0 °F 60% 30.12 in 10.0 mi ESE 11.5 mph - N/A   Overcast
5:54 PM 68.0 °F 43.0 °F 40% 30.12 in 10.0 mi South 13.8 mph - N/A   Overcast
6:54 PM 64.0 °F 52.0 °F 65% 30.14 in 10.0 mi SE 9.2 mph - N/A   Overcast
7:54 PM 64.0 °F 48.0 °F 56% 30.14 in 10.0 mi SSE 6.9 mph - N/A   Overcast
8:54 PM 63.0 °F 48.9 °F 60% 30.15 in 10.0 mi South 8.1 mph - N/A   Overcast
9:54 PM 61.0 °F 53.1 °F 75% 30.14 in 10.0 mi ESE 10.4 mph - N/A   Overcast
10:54 PM 60.1 °F 52.0 °F 75% 30.12 in 10.0 mi ESE 9.2 mph - N/A   Overcast
11:54 PM 59.0 °F 53.1 °F 81% 30.14 in 10.0 mi SE 5.8 mph - 0.00 in Rain Light Rain